Time,TemperatureF,DewpointF,PressureIn,WindDirection,WindDirectionDegrees,WindSpeedMPH,WindSpeedGustMPH,Humidity,HourlyPrecipIn,Conditions,Clouds,dailyrainin,SoftwareType,DateUTC
2013-02-01 00:08:00,34.9,18.1,29.35,North,-999,0.0,0.0,50,0.00,,,-99.99,FreeWX-Wi 1.02,2013-02-01 05:08:00,
2013-02-01 00:18:00,34.9,18.1,29.32,North,-999,0.0,0.0,50,0.00,,,-99.99,FreeWX-Wi 1.02,2013-02-01 05:18:00,
2013-02-01 00:28:00,34.7,18.0,29.32,North,-999,0.0,0.0,50,0.00,,,-99.99,FreeWX-Wi 1.02,2013-02-01 05:28:00,
2013-02-01 00:38:00,34.7,18.5,29.35,North,-999,0.0,0.0,51,0.00,,,-99.99,FreeWX-Wi 1.02,2013-02-01 05:38:00,
2013-02-01 00:48:00,34.5,18.3,29.35,North,-999,0.0,0.0,51,0.00,,,-99.99,FreeWX-Wi 1.02,2013-02-01 05:48:00,
2013-02-01 00:58:00,34.7,18.5,29.35,North,-999,0.0,0.0,51,0.00,,,-99.99,FreeWX-Wi 1.02,2013-02-01 05:58:00,
2013-02-01 01:08:00,34.7,18.5,29.32,North,-999,0.0,0.0,51,0.00,,,-99.99,FreeWX-Wi 1.02,2013-02-01 06:08:00,
2013-02-01 01:18:00,34.5,18.3,29.32,North,-999,0.0,0.0,51,0.00,,,-99.99,FreeWX-Wi 1.02,2013-02-01 06:18:00,
2013-02-01 01:28:00,34.3,18.1,29.32,North,-999,0.0,0.0,51,0.00,,,-99.99,FreeWX-Wi 1.02,2013-02-01 06:28:00,
2013-02-01 01:38:00,34.3,18.1,29.32,North,-999,0.0,0.0,51,0.00,,,-99.99,FreeWX-Wi 1.02,2013-02-01 06:38:00,
2013-02-01 01:48:00,34.3,18.1,29.32,North,-999,0.0,0.0,51,0.00,,,-99.99,FreeWX-Wi 1.02,2013-02-01 06:48:00,
2013-02-01 01:58:00,34.3,18.1,29.32,North,-999,0.0,0.0,51,0.00,,,-99.99,FreeWX-Wi 1.02,2013-02-01 06:58:00,
2013-02-01 02:08:00,34.3,18.1,29.32,North,-999,0.0,0.0,51,0.00,,,-99.99,FreeWX-Wi 1.02,2013-02-01 07:08:00,
2013-02-01 02:18:00,34.3,18.1,29.32,North,-999,0.0,0.0,51,0.00,,,-99.99,FreeWX-Wi 1.02,2013-02-01 07:18:00,
2013-02-01 02:28:00,34.2,18.3,29.32,North,-999,0.0,0.0,52,0.00,,,-99.99,FreeWX-Wi 1.02,2013-02-01 07:28:00,
2013-02-01 02:38:00,34.2,18.3,29.29,North,-999,0.0,0.0,52,0.00,,,-99.99,FreeWX-Wi 1.02,2013-02-01 07:38:00,
2013-02-01 02:48:00,34.2,18.3,29.29,North,-999,0.0,0.0,52,0.00,,,-99.99,FreeWX-Wi 1.02,2013-02-01 07:48:00,
2013-02-01 02:58:00,34.0,18.1,29.29,North,-999,0.0,0.0,52,0.00,,,-99.99,FreeWX-Wi 1.02,2013-02-01 07:58:00,
2013-02-01 03:08:00,34.2,18.3,29.29,North,-999,0.0,0.0,52,0.00,,,-99.99,FreeWX-Wi 1.02,2013-02-01 08:08:00,
2013-02-01 03:18:00,34.2,18.9,29.26,North,-999,0.0,0.0,53,0.00,,,-99.99,FreeWX-Wi 1.02,2013-02-01 08:18:00,
2013-02-01 03:28:00,34.2,18.9,29.26,North,-999,0.0,0.0,53,0.00,,,-99.99,FreeWX-Wi 1.02,2013-02-01 08:28:00,
2013-02-01 03:38:00,34.2,18.9,29.26,North,-999,0.0,0.0,53,0.00,,,-99.99,FreeWX-Wi 1.02,2013-02-01 08:38:00,
2013-02-01 03:48:00,34.3,19.0,29.26,North,-999,0.0,0.0,53,0.00,,,-99.99,FreeWX-Wi 1.02,2013-02-01 08:48:00,
2013-02-01 03:59:00,34.2,18.3,29.26,North,-999,0.0,0.0,52,0.00,,,-99.99,FreeWX-Wi 1.02,2013-02-01 08:59:00,
2013-02-01 04:09:00,34.2,18.3,29.26,North,-999,0.0,0.0,52,0.00,,,-99.99,FreeWX-Wi 1.02,2013-02-01 09:09:00,
2013-02-01 04:19:00,34.2,18.3,29.26,North,-999,0.0,0.0,52,0.00,,,-99.99,FreeWX-Wi 1.02,2013-02-01 09:19:00,
2013-02-01 04:29:00,34.2,18.3,29.26,North,-999,0.0,0.0,52,0.00,,,-99.99,FreeWX-Wi 1.02,2013-02-01 09:29:00,
2013-02-01 04:39:00,34.3,18.5,29.23,North,-999,0.0,0.0,52,0.00,,,-99.99,FreeWX-Wi 1.02,2013-02-01 09:39:00,
2013-02-01 04:49:00,34.5,18.3,29.23,North,-999,0.0,0.0,51,0.00,,,-99.99,FreeWX-Wi 1.02,2013-02-01 09:49:00,
2013-02-01 04:59:00,34.7,18.5,29.23,North,-999,0.0,0.0,51,0.00,,,-99.99,FreeWX-Wi 1.02,2013-02-01 09:59:00,
2013-02-01 05:09:00,34.7,18.5,29.20,North,-999,0.0,0.0,51,0.00,,,-99.99,FreeWX-Wi 1.02,2013-02-01 10:09:00,
2013-02-01 05:19:00,34.9,18.7,29.20,North,-999,0.0,2.2,51,0.00,,,-99.99,FreeWX-Wi 1.02,2013-02-01 10:19:00,
2013-02-01 05:29:00,35.1,18.9,29.20,North,-999,0.0,0.0,51,0.00,,,-99.99,FreeWX-Wi 1.02,2013-02-01 10:29:00,
2013-02-01 05:39:00,35.8,19.0,29.23,North,-999,0.0,5.4,50,0.00,,,-99.99,FreeWX-Wi 1.02,2013-02-01 10:39:00,
2013-02-01 05:49:00,36.3,19.0,29.23,North,-999,0.0,4.0,49,0.00,,,-99.99,FreeWX-Wi 1.02,2013-02-01 10:49:00,
2013-02-01 05:59:00,36.9,19.0,29.23,North,-999,0.0,4.5,48,0.00,,,-99.99,FreeWX-Wi 1.02,2013-02-01 10:59:00,
2013-02-01 06:09:00,37.4,18.0,29.23,North,-999,0.0,5.4,45,0.00,,,-99.99,FreeWX-Wi 1.02,2013-02-01 11:09:00,
2013-02-01 06:19:00,37.6,17.6,29.23,North,357,1.0,5.8,44,0.00,,,-99.99,FreeWX-Wi 1.02,2013-02-01 11:19:00,
2013-02-01 06:29:00,37.9,17.4,29.23,North,357,1.0,8.1,43,0.00,,,-99.99,FreeWX-Wi 1.02,2013-02-01 11:29:00,
2013-02-01 06:39:00,37.9,17.4,29.23,North,-999,0.0,4.0,43,0.00,,,-99.99,FreeWX-Wi 1.02,2013-02-01 11:39:00,
2013-02-01 06:49:00,37.9,17.4,29.26,North,-999,0.0,4.0,43,0.00,,,-99.99,FreeWX-Wi 1.02,2013-02-01 11:49:00,
2013-02-01 06:59:00,38.1,17.1,29.26,North,-999,0.0,3.6,42,0.00,,,-99.99,FreeWX-Wi 1.02,2013-02-01 11:59:00,
2013-02-01 07:09:00,37.9,16.9,29.26,North,-999,0.0,4.0,42,0.00,,,-99.99,FreeWX-Wi 1.02,2013-02-01 12:09:00,
2013-02-01 07:19:00,37.9,16.9,29.26,North,-999,0.0,5.4,42,0.00,,,-99.99,FreeWX-Wi 1.02,2013-02-01 12:19:00,
2013-02-01 07:29:00,38.1,17.1,29.26,North,-999,0.0,3.6,42,0.00,,,-99.99,FreeWX-Wi 1.02,2013-02-01 12:29:00,
2013-02-01 07:39:00,38.1,17.1,29.29,North,-999,0.0,5.4,42,0.00,,,-99.99,FreeWX-Wi 1.02,2013-02-01 12:39:00,
2013-02-01 07:49:00,38.3,17.8,29.32,North,-999,0.0,3.6,43,0.00,,,-99.99,FreeWX-Wi 1.02,2013-02-01 12:49:00,
2013-02-01 07:59:00,38.1,17.6,29.32,North,357,1.0,10.1,43,0.00,,,-99.99,FreeWX-Wi 1.02,2013-02-01 12:59:00,
2013-02-01 08:09:00,37.6,17.1,29.35,North,357,2.0,5.8,43,0.00,,,-99.99,FreeWX-Wi 1.02,2013-02-01 13:09:00,
2013-02-01 08:19:00,37.4,17.1,29.38,North,357,2.0,6.3,43,0.00,,,-99.99,FreeWX-Wi 1.02,2013-02-01 13:19:00,
2013-02-01 08:29:00,37.0,16.7,29.38,North,357,1.0,5.4,43,0.00,,,-99.99,FreeWX-Wi 1.02,2013-02-01 13:29:00,
2013-02-01 08:39:00,36.9,16.5,29.38,North,357,2.0,8.1,43,0.00,,,-99.99,FreeWX-Wi 1.02,2013-02-01 13:39:00,
2013-02-01 08:49:00,36.1,14.2,29.41,North,357,2.0,8.7,40,0.00,,,-99.99,FreeWX-Wi 1.02,2013-02-01 13:49:00,
2013-02-01 08:59:00,36.0,14.0,29.41,North,357,3.0,6.3,40,0.00,,,-99.99,FreeWX-Wi 1.02,2013-02-01 13:59:00,
2013-02-01 09:09:00,35.8,13.3,29.44,North,357,2.0,4.9,39,0.00,,,-99.99,FreeWX-Wi 1.02,2013-02-01 14:09:00,
2013-02-01 09:19:00,35.6,10.0,29.44,North,357,2.0,10.1,34,0.00,,,-99.99,FreeWX-Wi 1.02,2013-02-01 14:19:00,
2013-02-01 09:30:00,35.6,9.3,29.44,North,357,2.0,8.3,33,0.00,,,-99.99,FreeWX-Wi 1.02,2013-02-01 14:30:00,
2013-02-01 09:40:00,35.6,8.1,29.44,North,357,3.0,8.3,31,0.00,,,-99.99,FreeWX-Wi 1.02,2013-02-01 14:40:00,
2013-02-01 09:50:00,35.6,8.6,29.47,North,357,2.0,8.1,32,0.00,,,-99.99,FreeWX-Wi 1.02,2013-02-01 14:50:00,
2013-02-01 10:00:00,35.4,8.6,29.47,North,357,3.0,10.1,32,0.00,,,-99.99,FreeWX-Wi 1.02,2013-02-01 15:00:00,
2013-02-01 10:10:00,35.4,8.6,29.47,North,357,3.0,7.6,32,0.00,,,-99.99,FreeWX-Wi 1.02,2013-02-01 15:10:00,
2013-02-01 10:20:00,35.4,8.6,29.50,North,357,3.0,6.3,32,0.00,,,-99.99,FreeWX-Wi 1.02,2013-02-01 15:20:00,
2013-02-01 10:30:00,35.4,8.6,29.50,North,357,2.0,8.3,32,0.00,,,-99.99,FreeWX-Wi 1.02,2013-02-01 15:30:00,
2013-02-01 10:40:00,35.2,7.7,29.50,North,357,3.0,11.4,31,0.00,,,-99.99,FreeWX-Wi 1.02,2013-02-01 15:40:00,
2013-02-01 10:50:00,34.7,7.2,29.53,North,357,3.0,8.3,31,0.00,,,-99.99,FreeWX-Wi 1.02,2013-02-01 15:50:00,
2013-02-01 11:00:00,34.9,7.3,29.53,North,357,3.0,8.1,31,0.00,,,-99.99,FreeWX-Wi 1.02,2013-02-01 16:00:00,
2013-02-01 11:10:00,35.2,7.0,29.53,North,357,3.0,7.6,30,0.00,,,-99.99,FreeWX-Wi 1.02,2013-02-01 16:10:00,
2013-02-01 11:20:00,34.9,6.6,29.53,North,357,3.0,10.1,30,0.00,,,-99.99,FreeWX-Wi 1.02,2013-02-01 16:20:00,
2013-02-01 11:30:00,34.7,6.4,29.53,North,357,3.0,10.1,30,0.00,,,-99.99,FreeWX-Wi 1.02,2013-02-01 16:30:00,
2013-02-01 11:40:00,35.1,6.8,29.53,North,357,2.0,7.2,30,0.00,,,-99.99,FreeWX-Wi 1.02,2013-02-01 16:40:00,
2013-02-01 11:50:00,35.6,7.3,29.53,North,357,2.0,7.6,30,0.00,,,-99.99,FreeWX-Wi 1.02,2013-02-01 16:50:00,
2013-02-01 12:00:00,35.8,6.6,29.53,North,357,2.0,5.8,29,0.00,,,-99.99,FreeWX-Wi 1.02,2013-02-01 17:00:00,
2013-02-01 12:10:00,36.3,7.9,29.53,North,357,2.0,5.8,30,0.00,,,-99.99,FreeWX-Wi 1.02,2013-02-01 17:10:00,
2013-02-01 12:20:00,37.0,7.7,29.53,North,357,2.0,8.1,29,0.00,,,-99.99,FreeWX-Wi 1.02,2013-02-01 17:20:00,
2013-02-01 12:30:00,37.2,7.9,29.53,North,357,1.0,7.6,29,0.00,,,-99.99,FreeWX-Wi 1.02,2013-02-01 17:30:00,
2013-02-01 12:40:00,37.8,6.1,29.53,North,357,2.0,6.3,26,0.00,,,-99.99,FreeWX-Wi 1.02,2013-02-01 17:40:00,
2013-02-01 12:50:00,37.9,6.1,29.53,North,357,1.0,5.8,26,0.00,,,-99.99,FreeWX-Wi 1.02,2013-02-01 17:50:00,
2013-02-01 13:00:00,37.9,6.1,29.53,North,357,2.0,10.5,26,0.00,,,-99.99,FreeWX-Wi 1.02,2013-02-01 18:00:00,
2013-02-01 13:10:00,37.6,5.9,29.53,North,357,2.0,8.1,26,0.00,,,-99.99,FreeWX-Wi 1.02,2013-02-01 18:10:00,
2013-02-01 13:20:00,37.9,6.1,29.53,North,357,2.0,7.6,26,0.00,,,-99.99,FreeWX-Wi 1.02,2013-02-01 18:20:00,
2013-02-01 13:30:00,37.9,6.1,29.53,North,357,2.0,6.3,26,0.00,,,-99.99,FreeWX-Wi 1.02,2013-02-01 18:30:00,
2013-02-01 13:40:00,37.6,4.1,29.53,North,357,1.0,0.0,24,0.00,,,-99.99,FreeWX-Wi 1.02,2013-02-01 18:40:00,
2013-02-01 13:50:00,37.4,3.9,29.53,North,357,1.0,6.3,24,0.00,,,-99.99,FreeWX-Wi 1.02,2013-02-01 18:50:00,
2013-02-01 14:00:00,37.8,6.1,29.53,North,-999,0.0,5.8,26,0.00,,,-99.99,FreeWX-Wi 1.02,2013-02-01 19:00:00,
2013-02-01 14:10:00,37.6,5.9,29.56,North,357,1.0,6.3,26,0.00,,,-99.99,FreeWX-Wi 1.02,2013-02-01 19:10:00,
2013-02-01 14:20:00,37.6,4.1,29.56,North,357,1.0,7.6,24,0.00,,,-99.99,FreeWX-Wi 1.02,2013-02-01 19:20:00,
2013-02-01 14:30:00,37.9,6.1,29.56,North,357,1.0,5.4,26,0.00,,,-99.99,FreeWX-Wi 1.02,2013-02-01 19:30:00,
2013-02-01 14:40:00,38.1,6.3,29.56,North,357,1.0,5.4,26,0.00,,,-99.99,FreeWX-Wi 1.02,2013-02-01 19:40:00,
2013-02-01 14:50:00,38.1,4.6,29.56,North,357,1.0,6.3,24,0.00,,,-99.99,FreeWX-Wi 1.02,2013-02-01 19:50:00,
2013-02-01 15:00:00,37.9,4.5,29.56,North,357,2.0,6.3,24,0.00,,,-99.99,FreeWX-Wi 1.02,2013-02-01 20:00:00,
2013-02-01 15:10:00,37.4,3.9,29.56,North,357,2.0,8.7,24,0.00,,,-99.99,FreeWX-Wi 1.02,2013-02-01 20:10:00,
2013-02-01 15:20:00,37.2,6.4,29.56,North,357,1.0,4.9,27,0.00,,,-99.99,FreeWX-Wi 1.02,2013-02-01 20:20:00,
2013-02-01 15:30:00,37.0,3.6,29.56,North,357,1.0,4.5,24,0.00,,,-99.99,FreeWX-Wi 1.02,2013-02-01 20:30:00,
2013-02-01 15:40:00,37.0,3.6,29.56,North,-999,0.0,2.7,24,0.00,,,-99.99,FreeWX-Wi 1.02,2013-02-01 20:40:00,
2013-02-01 15:50:00,36.9,3.6,29.59,North,-999,0.0,5.4,24,0.00,,,-99.99,FreeWX-Wi 1.02,2013-02-01 20:50:00,
2013-02-01 16:00:00,36.7,3.4,29.59,North,-999,0.0,6.3,24,0.00,,,-99.99,FreeWX-Wi 1.02,2013-02-01 21:00:00,
2013-02-01 16:10:00,36.1,2.8,29.59,North,357,1.0,5.8,24,0.00,,,-99.99,FreeWX-Wi 1.02,2013-02-01 21:10:00,
2013-02-01 16:20:00,36.1,2.8,29.59,North,357,1.0,4.9,24,0.00,,,-99.99,FreeWX-Wi 1.02,2013-02-01 21:20:00,
2013-02-01 16:30:00,36.0,2.7,29.59,North,-999,0.0,3.1,24,0.00,,,-99.99,FreeWX-Wi 1.02,2013-02-01 21:30:00,
2013-02-01 16:40:00,35.6,2.5,29.59,North,-999,0.0,4.5,24,0.00,,,-99.99,FreeWX-Wi 1.02,2013-02-01 21:40:00,
2013-02-01 16:50:00,35.4,4.8,29.59,North,-999,0.0,3.1,27,0.00,,,-99.99,FreeWX-Wi 1.02,2013-02-01 21:50:00,
2013-02-01 17:00:00,34.9,4.3,29.59,North,-999,0.0,4.0,27,0.00,,,-99.99,FreeWX-Wi 1.02,2013-02-01 22:00:00,
2013-02-01 17:10:00,34.7,4.1,29.59,North,-999,0.0,3.1,27,0.00,,,-99.99,FreeWX-Wi 1.02,2013-02-01 22:10:00,
2013-02-01 17:20:00,34.3,3.9,29.59,North,-999,0.0,0.0,27,0.00,,,-99.99,FreeWX-Wi 1.02,2013-02-01 22:20:00,
2013-02-01 17:30:00,33.8,5.7,29.59,North,-999,0.0,0.0,30,0.00,,,-99.99,FreeWX-Wi 1.02,2013-02-01 22:30:00,
2013-02-01 17:40:00,33.6,5.5,29.59,North,-999,0.0,2.2,30,0.00,,,-99.99,FreeWX-Wi 1.02,2013-02-01 22:40:00,
2013-02-01 17:50:00,33.3,5.9,29.62,North,-999,0.0,0.0,31,0.00,,,-99.99,FreeWX-Wi 1.02,2013-02-01 22:50:00,
2013-02-01 18:00:00,33.1,5.7,29.62,North,-999,0.0,0.0,31,0.00,,,-99.99,FreeWX-Wi 1.02,2013-02-01 23:00:00,
2013-02-01 18:10:00,32.9,6.3,29.62,North,-999,0.0,0.0,32,0.00,,,-99.99,FreeWX-Wi 1.02,2013-02-01 23:10:00,
2013-02-01 18:20:00,32.9,7.0,29.62,North,-999,0.0,0.0,33,0.00,,,-99.99,FreeWX-Wi 1.02,2013-02-01 23:20:00,
2013-02-01 18:30:00,32.7,7.5,29.62,North,-999,0.0,0.0,34,0.00,,,-99.99,FreeWX-Wi 1.02,2013-02-01 23:30:00,
2013-02-01 18:40:00,32.5,7.9,29.62,North,-999,0.0,0.0,35,0.00,,,-99.99,FreeWX-Wi 1.02,2013-02-01 23:40:00,
2013-02-01 18:50:00,32.4,7.9,29.65,North,-999,0.0,0.0,35,0.00,,,-99.99,FreeWX-Wi 1.02,2013-02-01 23:50:00,
2013-02-01 19:00:00,32.0,7.5,29.65,North,-999,0.0,0.0,35,0.00,,,-99.99,FreeWX-Wi 1.02,2013-02-02 00:00:00,
2013-02-01 19:10:00,32.0,8.1,29.65,North,-999,0.0,0.0,36,0.00,,,-99.99,FreeWX-Wi 1.02,2013-02-02 00:10:00,
2013-02-01 19:20:00,31.8,8.6,29.65,North,-999,0.0,0.0,37,0.00,,,-99.99,FreeWX-Wi 1.02,2013-02-02 00:20:00,
2013-02-01 19:30:00,31.5,8.2,29.65,North,-999,0.0,0.0,37,0.00,,,-99.99,FreeWX-Wi 1.02,2013-02-02 00:30:00,
2013-02-01 19:40:00,30.9,7.7,29.65,North,-999,0.0,0.0,37,0.00,,,-99.99,FreeWX-Wi 1.02,2013-02-02 00:40:00,
2013-02-01 19:50:00,30.9,8.4,29.65,North,-999,0.0,0.0,38,0.00,,,-99.99,FreeWX-Wi 1.02,2013-02-02 00:50:00,
2013-02-01 20:00:00,30.7,8.8,29.65,North,-999,0.0,0.0,39,0.00,,,-99.99,FreeWX-Wi 1.02,2013-02-02 01:00:00,
2013-02-01 20:10:00,30.6,9.1,29.68,North,-999,0.0,0.0,40,0.00,,,-99.99,FreeWX-Wi 1.02,2013-02-02 01:10:00,
2013-02-01 20:20:00,30.4,9.0,29.68,North,-999,0.0,0.0,40,0.00,,,-99.99,FreeWX-Wi 1.02,2013-02-02 01:20:00,
2013-02-01 20:30:00,30.2,9.3,29.68,North,-999,0.0,0.0,41,0.00,,,-99.99,FreeWX-Wi 1.02,2013-02-02 01:30:00,
2013-02-01 20:40:00,29.8,9.0,29.68,North,-999,0.0,0.0,41,0.00,,,-99.99,FreeWX-Wi 1.02,2013-02-02 01:40:00,
2013-02-01 20:50:00,29.5,8.8,29.68,North,-999,0.0,0.0,41,0.00,,,-99.99,FreeWX-Wi 1.02,2013-02-02 01:50:00,
2013-02-01 21:00:00,29.5,8.8,29.68,North,-999,0.0,0.0,41,0.00,,,-99.99,FreeWX-Wi 1.02,2013-02-02 02:00:00,
2013-02-01 21:10:00,29.3,8.6,29.68,North,-999,0.0,0.0,41,0.00,,,-99.99,FreeWX-Wi 1.02,2013-02-02 02:10:00,
2013-02-01 21:20:00,28.9,8.2,29.71,North,-999,0.0,0.0,41,0.00,,,-99.99,FreeWX-Wi 1.02,2013-02-02 02:20:00,
2013-02-01 21:30:00,29.1,8.4,29.71,North,-999,0.0,0.0,41,0.00,,,-99.99,FreeWX-Wi 1.02,2013-02-02 02:30:00,
2013-02-01 21:40:00,28.9,8.8,29.71,North,-999,0.0,0.0,42,0.00,,,-99.99,FreeWX-Wi 1.02,2013-02-02 02:40:00,
2013-02-01 21:50:00,28.8,8.6,29.71,North,-999,0.0,0.0,42,0.00,,,-99.99,FreeWX-Wi 1.02,2013-02-02 02:50:00,
2013-02-01 22:00:00,28.6,8.4,29.71,North,-999,0.0,0.0,42,0.00,,,-99.99,FreeWX-Wi 1.02,2013-02-02 03:00:00,
2013-02-01 22:10:00,27.9,7.7,29.71,North,-999,0.0,0.0,42,0.00,,,-99.99,FreeWX-Wi 1.02,2013-02-02 03:10:00,
2013-02-01 22:20:00,27.3,7.3,29.71,North,-999,0.0,0.0,42,0.00,,,-99.99,FreeWX-Wi 1.02,2013-02-02 03:20:00,
2013-02-01 22:30:00,27.1,7.2,29.71,North,-999,0.0,0.0,42,0.00,,,-99.99,FreeWX-Wi 1.02,2013-02-02 03:30:00,
2013-02-01 22:40:00,26.8,6.8,29.71,North,-999,0.0,0.0,42,0.00,,,-99.99,FreeWX-Wi 1.02,2013-02-02 03:40:00,
2013-02-01 22:50:00,27.0,7.0,29.71,North,-999,0.0,0.0,42,0.00,,,-99.99,FreeWX-Wi 1.02,2013-02-02 03:50:00,
2013-02-01 23:00:00,27.0,7.0,29.71,North,-999,0.0,0.0,42,0.00,,,-99.99,FreeWX-Wi 1.02,2013-02-02 04:00:00,
2013-02-01 23:10:00,27.0,7.0,29.71,North,-999,0.0,0.0,42,0.00,,,-99.99,FreeWX-Wi 1.02,2013-02-02 04:10:00,
2013-02-01 23:20:00,26.6,7.2,29.71,North,-999,0.0,0.0,43,0.00,,,-99.99,FreeWX-Wi 1.02,2013-02-02 04:20:00,
2013-02-01 23:30:00,26.4,7.0,29.71,North,-999,0.0,0.0,43,0.00,,,-99.99,FreeWX-Wi 1.02,2013-02-02 04:30:00,
2013-02-01 23:40:00,26.2,6.8,29.71,North,-999,0.0,0.0,43,0.00,,,-99.99,FreeWX-Wi 1.02,2013-02-02 04:40:00,
2013-02-01 23:50:00,26.1,6.6,29.71,North,-999,0.0,0.0,43,0.00,,,-99.99,FreeWX-Wi 1.02,2013-02-02 04:50:00,